Wilmington, OH

8:30 AM EDT on April 23, 2017 (GMT -0400)
Airborne

Weather History for KILN - May, 2013

Change the Weather History Date:

Monday, May 27, 2013

  Actual Average (KFFO) Record (KFFO)
Temperature  
Mean Temperature 66 °F -  
Max Temperature 80 °F 71 °F 92 °F (2012)
Min Temperature 52 °F 51 °F 37 °F (1999)
Growing Degree Days 16 (Base 50)    
Moisture  
Dew Point 51 °F    
Average Humidity 61    
Maximum Humidity 86    
Minimum Humidity 42    
Precipitation  
Precipitation 0.16 in - - ()
Sea Level Pressure  
Sea Level Pressure 30.12 in    
Wind  
Wind Speed 7 mph (SE)    
Max Wind Speed 15 mph    
Max Gust Speed 23 mph    
Visibility 10 miles    
Events Rain    
Averages and records for this station are not official NWS values.
T = Trace of Precipitation, MM = Missing Value Source: NWS Daily Summary

Daily Weather History Graph

Daily Weather History Graph

Search for Another Location

Airport or City:

Trip Planner

Search our weather history database for the weather conditions in past years. The results will help you decide how hot, cold, wet, or windy it might be!

Date:

Astronomy

May. 27, 2013 Rise Set
Actual Time 6:12 AM EDT 8:52 PM EDT
Civil Twilight 5:41 AM EDT 9:24 PM EDT
Nautical Twilight 5:01 AM EDT 10:03 PM EDT
Astronomical Twilight 4:17 AM EDT 10:47 PM EDT
Moon 11:31 PM EDT (5/27) 8:48 AM EDT (5/27)
Length of Visible Light 15h 43m
Length of Day
14h 40m
Waning Gibbous, 91% of the Moon is Illuminated
May 27
Waning Gibbous
May 31
Last Quarter
Jun 8
New
Jun 16
First Quarter
Jun 23
Full

Hourly Weather History & Observations

Time (EDT) Temp. Dew Point Humidity Pressure Visibility Wind Dir Wind Speed Gust Speed Precip Events Conditions
12:54 AM 60.1 °F 44.1 °F 55% 30.22 in 10.0 mi ESE 3.5 mph - N/A   Overcast
1:54 AM 60.1 °F 44.1 °F 55% 30.21 in 10.0 mi ESE 5.8 mph - N/A   Overcast
2:54 AM 59.0 °F 43.0 °F 55% 30.20 in 10.0 mi ESE 4.6 mph - N/A   Overcast
3:54 AM 55.9 °F 48.0 °F 75% 30.21 in 8.0 mi ESE 3.5 mph - 0.02 in Rain Light Rain
4:54 AM 55.0 °F 45.0 °F 69% 30.21 in 10.0 mi ESE 3.5 mph - 0.02 in Rain Light Rain
5:54 AM 53.1 °F 46.0 °F 77% 30.22 in 9.0 mi ESE 6.9 mph - 0.02 in Rain Light Rain
6:54 AM 52.0 °F 48.0 °F 86% 30.22 in 8.0 mi East 6.9 mph - 0.05 in Rain Light Rain
7:54 AM 52.0 °F 46.9 °F 83% 30.22 in 5.0 mi East 8.1 mph - 0.05 in Rain Light Rain
8:54 AM 53.1 °F 46.9 °F 80% 30.22 in 10.0 mi ESE 9.2 mph - 0.00 in   Overcast
9:54 AM 55.9 °F 48.9 °F 77% 30.21 in 10.0 mi ESE 9.2 mph - N/A   Overcast
10:54 AM 60.1 °F 50.0 °F 69% 30.19 in 10.0 mi ESE 11.5 mph 20.7 mph N/A   Scattered Clouds
11:54 AM 63.0 °F 52.0 °F 67% 30.17 in 10.0 mi SE 11.5 mph - N/A   Clear
12:54 PM 66.9 °F 53.1 °F 61% 30.14 in 10.0 mi ESE 9.2 mph - N/A   Clear
1:54 PM 69.1 °F 53.1 °F 57% 30.11 in 10.0 mi SE 13.8 mph - N/A   Clear
2:54 PM 73.0 °F 57.9 °F 59% 30.08 in 10.0 mi SSE 10.4 mph 18.4 mph N/A   Clear
3:54 PM 77.0 °F 59.0 °F 54% 30.06 in 10.0 mi SE 8.1 mph - N/A   Partly Cloudy
4:54 PM 78.1 °F 57.0 °F 48% 30.03 in 10.0 mi SSE 9.2 mph - N/A   Scattered Clouds
5:54 PM 77.0 °F 54.0 °F 45% 30.01 in 10.0 mi South 9.2 mph - N/A   Partly Cloudy
6:54 PM 79.0 °F 54.0 °F 42% 29.98 in 10.0 mi SSW 15.0 mph 23.0 mph N/A   Clear
7:54 PM 77.0 °F 53.1 °F 43% 29.99 in 10.0 mi South 10.4 mph - N/A   Clear
8:54 PM 73.9 °F 52.0 °F 46% 29.99 in 10.0 mi South 8.1 mph - N/A   Scattered Clouds
9:54 PM 71.1 °F 53.1 °F 53% 29.99 in 10.0 mi South 5.8 mph - N/A   Partly Cloudy
10:54 PM 72.0 °F 54.0 °F 53% 29.99 in 10.0 mi South 11.5 mph - N/A   Scattered Clouds
11:54 PM 72.0 °F 55.9 °F 57% 29.99 in 10.0 mi South 9.2 mph - N/A   Overcast